Regional Weather Roundup
Issued by NWS

Home | Current Version | Previous Version | Text Only | Print | Product List | Glossary Off
Versions: 1 2 3 4 5 6 7 8 9 10 11 12 13 14 15 16 17 18 19 20 21 22 23 24 25 26 27 28 29 30 31 32 33 34 35 36 37 38 39 40 41 42 43 44 45 46 47 48 49 50

349
ASUS43 KBIS 240610
RWRND

NORTH DAKOTA REGIONAL WEATHER ROUNDUP
NATIONAL WEATHER SERVICE BISMARCK ND
100 AM CDT THU AUG 24 2017

NOTE: "FAIR" INDICATES FEW OR NO CLOUDS BELOW 12,000 FEET WITH NO
SIGNIFICANT WEATHER AND/OR OBSTRUCTIONS TO VISIBILITY.


NDZ001>003-009>011-017-240700-
NORTHWEST NORTH DAKOTA

CITY           SKY/WX    TMP DP  RH WIND       PRES   REMARKS
WILLISTON      CLEAR     66  53  63 E13       29.95S
6HR MIN TEMP:  66; 6HR MAX TEMP:  90;

MINOT          CLEAR     57  52  83 NE9       30.01R
MINOT AFB      CLEAR     57  50  79 E13       30.00R
$$

NDZ018>021-031>035-040>046-240700-
SOUTHWEST NORTH DAKOTA

CITY           SKY/WX    TMP DP  RH WIND       PRES   REMARKS
BISMARCK       CLEAR     60  56  86 E6        29.97R
6HR MIN TEMP:  60; 6HR MAX TEMP:  81;

DICKINSON      CLEAR     62  56  80 S9        29.95S
GARRISON         N/A     60  56  86 E9        29.96R
6HR MIN TEMP:  60; 6HR MAX TEMP:  80;

HETTINGER ARPT CLEAR     65  57  75 SE10      29.99S
$$

NDZ004>008-012>016-024-026-027-054-240700-
NORTHEAST NORTH DAKOTA

CITY           SKY/WX    TMP DP  RH WIND       PRES   REMARKS
GRAND FORKS    PTCLDY    56  55  97 NE8       30.09R
GRND FRKS AFB  CLEAR     50  49  98 NE6       30.09R
DEVILS LAKE    MOCLDY    55  52  89 E12       30.07S
$$

NDZ022-023-025-028>030-036>039-047>053-240700-
SOUTHEAST NORTH DAKOTA

CITY           SKY/WX    TMP DP  RH WIND       PRES   REMARKS
FARGO          PTCLDY    57  56  96 E7        30.05R
6HR MIN TEMP:  57; 6HR MAX TEMP:  74; 6HR PCP:  0.01;

JAMESTOWN      CLEAR     56  50  80 E14       30.02R
$$





USA.gov is the U.S. government's official web portal to all federal, state and local government web resources and services.